ROMMA est une association bénévole à but non lucratif. Votre soutien est indispensable : ADHERER à ROMMA ou FAIRE un DON

Pinsot - (38, Isère)

Vallée du Haut Bréda (750 m)   Longitude: 06° 06' E   Latitude: 45° 21' N Station partenaire n°101
 

Détail journalier du     <<     >>

Température Precipitation Humidité Pression Vent Dir Rafale Dir. rafale Ensol.
Heure (°C) (mm) (%) (hPa) (km/h) (km/h) (min)
01:00 3.709610132SSO15S0
02:00 3.809610131SSO11SSO0
03:00 4.509610131SSO13SSO0
04:00 3.809610131SSO8SSO0
05:00 4.409710131SSO8SSO0
06:00 4.2096101308SSO0
07:00 4.209510134SSO19SO0
08:00 3.709710132SSO10SSO0
09:00 4.409610142SSO13SSO15
10:00 5.409410143SSO18SSO0
11:00 6.009410133SSO11SSO0
12:00 7.9091101308S16
13:00 8.2090101208SO60
14:00 7.3094101205ENE60
15:00 7.6091101205ENE29
16:00 7.908710121SSO15SO0
17:00 6.409210121SSO11SSO0
18:00 6.009010122SSO16SSO0
19:00 4.909210131SSO15SSO0
20:00 4.209310131SSO11SSO0
21:00 3.709310131SSO10SO0
22:00 3.709410132SSO11SSO0
23:00 3.309410131SSO10SSO0
minuit 3.409410132SSO10SSO0

Graphique du 15-12-2019

 

Serveur OMMA